Terminal Aerodrome Forecast
Issued by NWS

Home | Current Version | Previous Version | Text Only | Print | Product List | Glossary On
Versions: 1 2 3 4 5 6 7 8 9 10 11 12 13 14 15 16 17 18 19 20 21 22 23 24 25 26 27 28 29 30
000
FTUS44 KOHX 191200 AAA
TAFCKV
TAF AMD
KCKV 191200Z 1912/2012 22007KT P6SM BKN045 BKN150
      TEMPO 1912/1914 4SM -TSRA BR OVC040CB
     FM192300 18002KT P6SM SCT150
     FM200900 18002KT 4SM BR SCT150=

USA.gov is the U.S. government's official web portal to all federal, state and local government web resources and services.